Showing default

OPS 9348 (IDSCS 26), 3291

Orbit data source: Space-Track

OPS 9348 (IDSCS 26), 3291 is a payload satellite owned by SAMSO (US) in GEO that was launched on Thu, 13 Jun 1968 UTC via a TITAN IIIC launch vehicle from the Air Force Eastern Test Range (AFETR). Payloads include a variety of satellites, spacecraft, and rockets equipped with specific instruments for various scientific and technological missions. These include communications satellites like Starlink; space stations such as the ISS; scientific satellites like the Hubble; Earth observation satellites from companies like Planet Labs, Umbra, and HawkEye 360; GPS; miniature CubeSats for education and research; and military/defense satellites.

Loading next visibility...
OPS 9348 (IDSCS 26) details
Identifier
3291, 1968-050H
Orbit
GEO
Last TLE update1 day ago
Origin
Flag of USSAMSO (US)
ManufacturerPhilco-Ford
MissionNon-operational Defense Communications
Bus & MotorIDCSP, Unknown motor
Mass45 kg wet, 45 kg dry
Launch date (UTC)
1968-06-13 (57 years ago)
Launch vehicle
TITAN IIIC
Launch site
Air Force Eastern Test Range (AFETR)
Object type
Payload
Rocket body
Debris
Shape & HBRPoly, 0.9 m
Radar Cross Section0.926 m², Medium (>0.1 m² and < 1m²)

Expand to show TLE details & history

TLE from 1 day ago
0 OPS 9348 (IDSCS 26)
1 03291U 68050H   24355.27056519 -.00000108  00000-0  00000-0 0  9998
2 03291   5.7600  59.6131 0074583 119.0083 242.0597  1.06767576220210
Epoch: 2024-12-20T06:29Z
Definitive object data (Epoch: 2024-12-20T06:29:36.832Z)
Latitude0.04467°
Longitude-126.8065°
Altitude34,200.289 km
Speed3.129 km/s
True Right ascension03h 59m 44s
True Declination0° 02' 41"
Sunlit
Object was in daylight at TLE epoch
Visualization TLE readout
Latitude4.45473°
Longitude2.43193°
Altitude33,761.989 km
Speed3.163 km/s
Apparent Right ascension12h 41m 43s
Apparent Declination-1° 33' 25"
Sunlit
Object is in daylight
Visualization observer readout
Local Sidereal Time12:00:26
Azimuth164.637° S
Elevation47.465°
Doppler factor1
Orbital elements
Apogee altitude34,361.247 km
Perigee altitude33,758.052 km
Semi-major axis40,437.786 km
Eccentricity0.0074583
Inclination5.76°
RAAN59.6131°
Arg. of periapsis119.0083°
True anomaly241.30797°
Mean anomaly242.0597°
Eccentric anomaly241.6835°
Mean motion0.26691 °/min
BSTARUnknown
Orbital period1348.78 mins
Loading historical data...
3291 neighbors
Authenticating...
Loading maneuver chart data...
Loading historical data...
Loading historical data...
Loading historical data...
Loading historical data...
Loading historical data...
Loading historical data...
Loading historical data...

OPS 9348 (IDSCS 26) Visibility forecast

Observer location: undefined°, undefined

Span
Click to sort rows by Start time (UTC) header in descending order
Start Az.
Max El. time (UTC)
Max El. Az.
Max El.
End time (UTC)
End Az.
1440 mins2024-12-21 12:58:32.885Z164.644° S2024-12-21 12:58:32.885Z164.644° S36.378°2024-12-22 12:58:32.885Z133.072° SE
|